When you browse on this site, cookies collect data to enhance your experience and personalize the content and advertising you see.
Visit our Privacy Policy to learn more. By continuing to use the site, you agree to this use of cookies and data.
  • In Hungary
  • List of Countries
  • For 7 days
  • Water Temperature
  • Satellite Maps
  • Weather Map
  • News
  • Weather Widgets
  • user-avatar
    Login

    Hourly Weather Selestrovo

    Today, 22 May, Wednesday

    Time Temperature Precipitation Wind Pressure Humidity
    00:00 +17°C° 0 mm 2 mps 745 mmHg 73%
    01:00 +16°C° 0 mm 2 mps 744 mmHg 75%
    02:00 +15°C° 0 mm 2 mps 744 mmHg 77%
    03:00 +15°C° 0 mm 2 mps 744 mmHg 79%
    04:00 +15°C° 0 mm 2 mps 744 mmHg 80%
    05:00 +15°C° 0 mm 2 mps 744 mmHg 81%
    06:00 +17°C° 0 mm 2 mps 744 mmHg 75%
    07:00 +19°C° 0 mm 2 mps 743 mmHg 70%
    08:00 +21°C° 0 mm 2 mps 743 mmHg 64%
    09:00 +21°C° 0 mm 2 mps 743 mmHg 61%
    10:00 +23°C° 0 mm 2 mps 743 mmHg 58%
    11:00 +24°C° 0 mm 2 mps 743 mmHg 54%
    12:00 +25°C° 0 mm 2 mps 742 mmHg 52%
    13:00 +25°C° 0 mm 2 mps 742 mmHg 49%
    14:00 +26°C° 0 mm 2 mps 741 mmHg 46%
    15:00 +25°C° 0.5 mm 2 mps 741 mmHg 55%
    16:00 +24°C° 0.5 mm 2 mps 741 mmHg 63%
    17:00 +21°C° 0.5 mm 2 mps 741 mmHg 72%
    18:00 +20°C° 0.1 mm 2 mps 740 mmHg 78%
    19:00 +19°C° 0.1 mm 1 mps 740 mmHg 84%
    20:00 +18°C° 0.1 mm 1 mps 740 mmHg 90%
    21:00 +16°C° 0 mm 1 mps 740 mmHg 90%
    22:00 +14°C° 0 mm 0 mps 740 mmHg 91%
    23:00 +13°C° 0 mm 0 mps 739 mmHg 92%

    Tomorrow, 23 May, Thursday

    Time Temperature Precipitation Wind Pressure Humidity
    00:00 +13°C° 0 mm 0 mps 740 mmHg 93%
    01:00 +14°C° 0 mm 1 mps 740 mmHg 94%
    02:00 +14°C° 0 mm 1 mps 740 mmHg 94%
    03:00 +14°C° 0 mm 1 mps 740 mmHg 94%
    04:00 +14°C° 0 mm 1 mps 739 mmHg 94%
    05:00 +14°C° 0 mm 1 mps 739 mmHg 95%
    06:00 +16°C° 0 mm 1 mps 739 mmHg 90%
    07:00 +18°C° 0 mm 1 mps 740 mmHg 85%
    08:00 +20°C° 0 mm 1 mps 740 mmHg 80%
    09:00 +19°C° 0.2 mm 2 mps 740 mmHg 75%
    10:00 +20°C° 0.2 mm 2 mps 740 mmHg 70%
    11:00 +21°C° 0.2 mm 3 mps 740 mmHg 66%
    12:00 +21°C° 0.2 mm 3 mps 740 mmHg 64%
    13:00 +22°C° 0.2 mm 3 mps 740 mmHg 62%
    14:00 +22°C° 0.2 mm 3 mps 740 mmHg 61%
    15:00 +21°C° 0.2 mm 3 mps 740 mmHg 63%
    16:00 +20°C° 0.2 mm 4 mps 740 mmHg 64%
    17:00 +20°C° 0.2 mm 4 mps 740 mmHg 66%
    18:00 +17°C° 0 mm 4 mps 741 mmHg 68%
    19:00 +14°C° 0 mm 4 mps 741 mmHg 70%
    20:00 +12°C° 0 mm 3 mps 741 mmHg 72%
    21:00 +11°C° 0 mm 3 mps 742 mmHg 73%
    22:00 +10°C° 0 mm 2 mps 742 mmHg 74%
    23:00 +9°C° 0 mm 2 mps 742 mmHg 75%

    Day after tomorrow, 24 May, Friday

    Time Temperature Precipitation Wind Pressure Humidity
    00:00 +8°C° 0 mm 2 mps 743 mmHg 76%
    01:00 +8°C° 0 mm 2 mps 743 mmHg 77%
    02:00 +7°C° 0 mm 2 mps 743 mmHg 78%
    03:00 +8°C° 0 mm 2 mps 743 mmHg 77%
    04:00 +8°C° 0 mm 2 mps 744 mmHg 75%
    05:00 +9°C° 0 mm 2 mps 744 mmHg 73%
    06:00 +10°C° 0 mm 2 mps 744 mmHg 69%
    07:00 +12°C° 0 mm 3 mps 744 mmHg 64%
    08:00 +14°C° 0 mm 3 mps 744 mmHg 59%
    09:00 +16°C° 0 mm 3 mps 744 mmHg 55%
    10:00 +17°C° 0 mm 3 mps 744 mmHg 51%
    11:00 +19°C° 0 mm 3 mps 744 mmHg 47%
    12:00 +19°C° 0 mm 3 mps 744 mmHg 46%
    13:00 +20°C° 0 mm 3 mps 744 mmHg 45%
    14:00 +20°C° 0 mm 3 mps 744 mmHg 45%
    15:00 +20°C° 0 mm 3 mps 744 mmHg 47%
    16:00 +20°C° 0 mm 3 mps 744 mmHg 49%
    17:00 +20°C° 0 mm 3 mps 743 mmHg 51%
    18:00 +18°C° 0 mm 3 mps 743 mmHg 57%
    19:00 +17°C° 0 mm 3 mps 743 mmHg 63%
    20:00 +14°C° 0 mm 3 mps 743 mmHg 68%
    21:00 +13°C° 0 mm 4 mps 743 mmHg 69%
    22:00 +13°C° 0 mm 4 mps 743 mmHg 70%
    23:00 +12°C° 0 mm 4 mps 743 mmHg 71%

    25 May, Saturday

    Time Temperature Precipitation Wind Pressure Humidity
    00:00 +12°C° 0 mm 4 mps 743 mmHg 70%
    01:00 +11°C° 0 mm 4 mps 742 mmHg 70%
    02:00 +11°C° 0 mm 4 mps 742 mmHg 69%
    03:00 +11°C° 0.1 mm 4 mps 742 mmHg 73%
    04:00 +12°C° 0.1 mm 4 mps 741 mmHg 77%
    05:00 +12°C° 0.1 mm 4 mps 741 mmHg 81%
    06:00 +13°C° 0.2 mm 4 mps 741 mmHg 80%
    07:00 +14°C° 0.2 mm 4 mps 741 mmHg 80%
    08:00 +15°C° 0.2 mm 5 mps 740 mmHg 79%
    09:00 +16°C° 0.1 mm 5 mps 740 mmHg 77%
    10:00 +17°C° 0.1 mm 5 mps 740 mmHg 75%
    11:00 +19°C° 0.1 mm 5 mps 739 mmHg 73%
    12:00 +19°C° 0.5 mm 5 mps 739 mmHg 75%
    13:00 +19°C° 0.5 mm 5 mps 738 mmHg 77%
    14:00 +19°C° 0.5 mm 5 mps 738 mmHg 79%
    15:00 +18°C° 0.9 mm 4 mps 737 mmHg 84%
    16:00 +17°C° 0.9 mm 4 mps 737 mmHg 88%
    17:00 +16°C° 0.9 mm 3 mps 737 mmHg 93%
    18:00 +16°C° 0.4 mm 3 mps 737 mmHg 94%
    19:00 +15°C° 0.4 mm 2 mps 737 mmHg 95%
    20:00 +15°C° 0.4 mm 1 mps 736 mmHg 96%
    21:00 +15°C° 0.3 mm 2 mps 736 mmHg 96%
    22:00 +14°C° 0.3 mm 2 mps 736 mmHg 97%
    23:00 +13°C° 0.3 mm 2 mps 736 mmHg 97%

    26 May, Sunday

    Time Temperature Precipitation Wind Pressure Humidity
    00:00 +12°C° 0 mm 2 mps 736 mmHg 97%
    01:00 +10°C° 0 mm 2 mps 736 mmHg 96%
    02:00 +9°C° 0 mm 2 mps 736 mmHg 95%
    03:00 +10°C° 0 mm 2 mps 736 mmHg 95%
    04:00 +10°C° 0 mm 2 mps 736 mmHg 94%
    05:00 +10°C° 0 mm 2 mps 736 mmHg 93%
    06:00 +13°C° 0 mm 2 mps 736 mmHg 87%
    07:00 +14°C° 0 mm 2 mps 736 mmHg 81%
    08:00 +16°C° 0 mm 2 mps 736 mmHg 75%
    09:00 +17°C° 0 mm 3 mps 736 mmHg 67%
    10:00 +18°C° 0 mm 3 mps 736 mmHg 60%
    11:00 +19°C° 0 mm 4 mps 736 mmHg 52%
    12:00 +19°C° 0 mm 4 mps 736 mmHg 51%
    13:00 +20°C° 0 mm 4 mps 735 mmHg 49%
    14:00 +20°C° 0 mm 4 mps 735 mmHg 48%
    15:00 +19°C° 0 mm 3 mps 735 mmHg 49%
    16:00 +19°C° 0 mm 3 mps 735 mmHg 51%
    17:00 +19°C° 0 mm 3 mps 735 mmHg 52%
    18:00 +17°C° 0 mm 2 mps 735 mmHg 59%
    19:00 +15°C° 0 mm 2 mps 734 mmHg 67%
    20:00 +13°C° 0 mm 1 mps 734 mmHg 75%
    21:00 +12°C° 0 mm 2 mps 734 mmHg 79%
    22:00 +10°C° 0 mm 2 mps 734 mmHg 83%
    23:00 +10°C° 0 mm 2 mps 734 mmHg 88%

    27 May, Monday

    Time Temperature Precipitation Wind Pressure Humidity
    00:00 +10°C° 0.1 mm 2 mps 733 mmHg 90%
    01:00 +10°C° 0.1 mm 2 mps 733 mmHg 91%
    02:00 +10°C° 0.1 mm 2 mps 733 mmHg 93%
    03:00 +9°C° 0.5 mm 3 mps 733 mmHg 93%
    04:00 +8°C° 0.5 mm 4 mps 733 mmHg 93%
    05:00 +8°C° 0.5 mm 4 mps 733 mmHg 94%
    06:00 +8°C° 0.5 mm 4 mps 733 mmHg 91%
    07:00 +8°C° 0.5 mm 4 mps 733 mmHg 87%
    08:00 +10°C° 0.5 mm 4 mps 733 mmHg 84%
    09:00 +10°C° 0.2 mm 5 mps 734 mmHg 76%
    10:00 +12°C° 0.2 mm 5 mps 734 mmHg 68%
    11:00 +13°C° 0.2 mm 5 mps 734 mmHg 60%
    12:00 +13°C° 0.5 mm 5 mps 734 mmHg 63%
    13:00 +11°C° 0.5 mm 6 mps 734 mmHg 67%
    14:00 +11°C° 0.5 mm 6 mps 735 mmHg 71%
    15:00 +11°C° 0.2 mm 6 mps 735 mmHg 70%
    16:00 +12°C° 0.2 mm 5 mps 735 mmHg 69%
    17:00 +12°C° 0.2 mm 5 mps 736 mmHg 67%
    18:00 +10°C° 0 mm 5 mps 736 mmHg 73%
    19:00 +10°C° 0 mm 4 mps 737 mmHg 78%
    20:00 +9°C° 0 mm 3 mps 737 mmHg 83%
    21:00 +9°C° 0 mm 3 mps 738 mmHg 86%
    22:00 +8°C° 0 mm 3 mps 738 mmHg 89%
    23:00 +8°C° 0 mm 3 mps 739 mmHg 92%
    Show more